Wind_Speed
34 36 38 35 32 29 27 28 28 28 29 29 28 28 29 29 29 29 29 29 30 31 33 34 36 38 39 41 41 41 41 41 41 41 42 43 42 41
32 32 31 29 27 25 26 27 27 28 29 29 29 29 30 30 31 31 31 30 31 31 32 33 35 37 39 41 42 41 40 40 41 41 40 40 41 41
28 27 25 24 23 24 25 26 27 28 29 30 30 31 32 32 33 33 33 33 33 33 33 32 33 35 39 40 41 42 41 39 39 39 38 38 38 40
24 23 22 22 22 23 24 26 27 29 30 31 31 32 32 34 35 36 36 36 36 35 35 34 34 34 36 38 40 40 40 39 39 38 38 37 37 38
21 21 21 21 22 23 25 26 27 28 29 30 31 32 33 34 36 37 38 38 38 37 36 35 35 35 35 36 38 39 40 39 39 38 37 36 35 35
20 21 21 22 23 24 24 25 26 27 28 30 31 32 34 35 36 37 38 38 39 38 37 36 35 35 34 34 35 35 36 37 37 37 36 35 34 34
19 20 20 21 21 22 23 24 25 27 28 29 31 32 33 34 35 36 37 37 37 37 36 36 35 35 35 33 32 32 32 33 34 34 34 33 33 33
19 19 19 20 20 22 23 24 25 26 27 29 30 31 33 34 34 35 35 35 35 35 35 35 35 35 34 33 32 30 28 29 31 32 32 33 33 34
19 19 20 20 21 21 22 23 24 25 26 28 29 30 31 32 33 34 34 34 34 34 34 33 34 34 33 33 32 30 27 26 27 31 33 34 34 34
18 18 18 18 18 19 20 20 21 23 24 25 26 28 29 31 32 33 33 33 34 34 33 32 31 31 31 31 32 30 26 24 24 26 29 32 33 33
15 15 15 14 14 14 15 17 19 20 22 24 25 27 29 31 32 33 33 33 33 33 33 32 31 30 30 30 29 29 27 23 23 23 24 27 29 30
11 11 10 11 12 12 14 16 18 20 22 24 27 29 30 31 32 33 34 33 33 32 32 31 31 30 29 29 27 27 27 25 21 21 23 23 25 27
8 8 8 9 11 13 15 17 19 22 24 26 28 29 31 31 32 32 32 31 31 30 30 29 29 28 27 26 25 25 25 25 24 22 21 23 24 26
7 8 9 10 12 14 16 18 20 22 25 27 29 30 30 30 30 29 28 28 28 27 27 26 26 26 25 24 24 23 22 23 23 23 22 21 22 24
8 9 10 11 13 14 16 18 21 23 26 28 29 30 30 29 28 27 26 25 25 24 24 24 25 26 25 24 23 24 24 23 22 23 22 22 22 23
9 10 10 11 13 14 16 19 21 24 26 28 29 29 29 28 27 26 25 24 23 22 21 21 23 24 24 25 25 25 25 25 24 24 25 25 24 24
10 10 11 11 12 13 15 18 20 23 25 26 27 27 27 26 25 24 23 23 23 22 21 20 21 22 22 24 26 27 27 27 27 26 28 28 28 30
11 11 11 11 12 13 14 16 19 22 24 25 26 26 26 25 24 23 22 22 22 22 21 20 20 21 22 22 24 27 29 30 29 29 30 31 32 33
12 12 11 11 11 11 13 16 18 21 23 24 25 26 26 25 24 23 22 22 22 22 22 21 20 21 21 21 23 26 29 32 33 34 34 34 34 35
14 13 12 11 11 10 12 15 18 20 23 24 26 27 27 26 25 24 23 22 23 23 23 22 22 22 22 22 23 23 26 29 33 35 37 38 38 39
15 13 12 11 10 10 11 13 17 20 23 25 27 28 29 29 28 26 25 24 23 23 23 23 22 23 23 23 23 23 24 26 30 33 37 40 41 42
16 14 14 12 11 10 10 12 15 18 22 25 28 29 31 32 31 30 28 27 25 24 24 23 23 23 23 24 24 24 25 26 28 30 33 37 40 43
17 16 16 14 13 12 11 13 15 18 21 24 27 30 32 33 33 33 32 30 28 26 24 23 23 22 22 23 23 24 24 25 27 29 31 33 36 40
Wind_Direction
255 252 248 246 245 246 250 255 259 262 263 265 267 269 271 273 276 278 279 280 280 280 280 280 279 277 275 273 270 268 265 261 259 257 254 251 250 252
249 247 247 247 244 248 253 256 259 261 262 263 265 269 271 274 276 279 281 283 284 285 286 286 284 280 277 274 270 267 265 261 259 257 256 252 251 251
248 249 249 248 251 254 256 257 259 261 265 267 269 270 272 274 276 278 281 283 285 286 287 287 288 285 280 274 270 267 264 261 258 257 255 254 252 249
251 253 256 257 258 259 259 261 262 265 267 270 272 274 275 276 277 279 281 282 283 285 286 287 288 288 283 275 271 267 263 260 258 256 254 253 251 248
253 255 259 260 261 263 264 265 267 269 270 272 274 276 278 279 280 280 281 282 283 283 284 286 287 288 286 279 272 267 262 259 257 255 252 250 248 247
254 256 259 262 264 266 268 270 271 272 273 275 277 278 279 280 281 282 282 282 282 282 282 282 283 285 286 283 276 270 263 258 255 253 250 247 246 244
255 258 261 264 266 268 270 272 274 275 277 278 279 280 280 281 281 281 281 282 282 282 281 280 280 280 282 281 281 273 265 259 253 247 244 243 242 241
257 261 264 266 267 270 272 274 276 278 280 282 283 283 283 282 282 282 282 282 282 281 281 279 277 277 280 278 279 274 266 258 249 240 238 237 237 236
261 262 263 265 269 272 275 279 282 284 286 287 287 287 286 286 285 284 283 283 283 282 280 279 277 277 278 278 278 278 270 261 248 238 234 232 230 230
261 263 264 267 271 276 281 284 288 291 292 293 293 292 291 290 289 287 285 284 283 282 280 279 278 278 277 279 279 279 273 262 252 242 235 232 230 230
261 263 267 271 277 282 288 292 295 297 298 298 298 297 295 293 292 290 288 286 284 282 280 278 277 276 276 277 278 278 277 266 253 250 242 236 231 229
266 270 277 284 290 294 298 301 303 304 303 303 301 299 297 295 293 291 289 286 284 282 279 277 276 275 274 274 275 274 274 272 261 253 249 244 240 236
276 283 290 296 299 302 305 306 307 306 305 304 303 302 300 297 294 291 289 287 284 282 280 277 274 273 272 271 270 269 269 270 267 263 257 249 244 240
281 288 295 298 301 304 307 308 309 309 309 309 308 306 304 301 297 294 291 288 285 283 280 276 272 270 268 265 262 260 261 261 261 261 260 252 244 238
287 291 293 297 303 309 312 314 315 317 317 317 316 314 311 307 302 298 294 292 289 286 283 278 272 268 264 261 257 254 252 251 251 250 250 248 246 241
286 290 294 302 309 315 319 322 324 325 326 325 324 322 319 314 309 304 300 297 294 291 286 280 275 270 264 258 254 252 249 247 245 244 244 242 238 238
283 288 293 303 311 316 320 325 330 333 334 334 332 330 327 323 317 310 305 302 299 296 293 286 279 273 268 261 253 249 247 245 243 241 240 239 237 236
278 283 292 297 303 311 322 332 339 341 342 341 339 337 335 331 326 319 311 305 302 299 297 293 286 279 273 266 258 251 247 245 243 241 240 238 237 239
274 278 284 291 300 315 331 341 346 348 348 347 345 344 341 337 332 326 319 312 307 303 300 296 291 286 281 274 263 256 250 247 244 242 241 240 240 239
272 274 280 288 298 315 332 344 349 351 351 351 351 349 347 344 339 333 326 318 311 306 302 297 292 289 286 281 275 266 258 252 248 245 243 242 242 242
268 269 274 280 290 308 327 341 349 351 351 353 353 352 351 349 345 340 334 327 319 312 306 301 295 290 287 285 282 277 269 260 254 250 247 245 244 243
263 262 265 270 279 295 315 332 342 347 349 351 353 354 353 352 350 346 340 334 328 321 314 308 301 294 291 288 286 282 277 271 264 258 254 249 246 244
258 256 258 263 271 284 303 320 331 337 343 347 350 352 352 352 351 349 345 340 333 327 322 316 309 303 298 294 291 287 283 278 273 267 261 255 251 247
Height
5758 5758 5759 5760 5761 5763 5767 5771 5774 5776 5778 5778 5779 5780 5781 5781 5782 5782 5782 5781 5781 5780 5779 5777 5777 5776 5776 5776 5777 5777 5778 5779 5780 5782 5784 5786 5788 5791
5750 5751 5752 5753 5754 5757 5760 5763 5766 5768 5769 5770 5771 5772 5772 5773 5773 5773 5773 5772 5772 5770 5769 5767 5766 5766 5765 5765 5766 5766 5767 5768 5769 5771 5773 5775 5777 5780
5744 5745 5746 5747 5749 5751 5754 5756 5758 5760 5762 5762 5763 5763 5764 5764 5764 5764 5763 5763 5762 5761 5760 5758 5756 5755 5755 5754 5754 5755 5756 5757 5758 5760 5762 5764 5766 5769
5738 5739 5741 5742 5744 5746 5748 5750 5752 5753 5754 5755 5755 5755 5755 5755 5754 5754 5754 5753 5753 5751 5750 5748 5747 5745 5744 5743 5743 5743 5744 5746 5748 5749 5751 5754 5755 5758
5732 5734 5736 5737 5739 5741 5743 5744 5745 5746 5746 5747 5747 5747 5746 5745 5745 5744 5744 5743 5742 5741 5740 5738 5737 5736 5734 5733 5732 5732 5732 5734 5736 5738 5740 5743 5745 5748
5728 5729 5731 5733 5734 5736 5737 5738 5738 5738 5738 5738 5738 5738 5737 5736 5736 5735 5734 5733 5732 5730 5729 5728 5727 5726 5725 5723 5721 5721 5721 5722 5724 5727 5729 5732 5735 5738
5723 5725 5726 5728 5729 5730 5730 5731 5731 5731 5731 5730 5730 5729 5728 5727 5726 5725 5724 5722 5721 5720 5719 5718 5717 5716 5715 5714 5712 5710 5710 5711 5713 5716 5719 5722 5725 5728
5718 5720 5721 5722 5722 5723 5723 5723 5723 5723 5722 5722 5721 5720 5719 5718 5716 5715 5714 5713 5711 5710 5709 5708 5707 5707 5706 5705 5703 5702 5701 5702 5703 5706 5709 5712 5715 5718
5713 5714 5715 5715 5716 5716 5716 5715 5715 5714 5714 5713 5712 5711 5710 5708 5707 5705 5703 5702 5701 5700 5699 5697 5697 5697 5696 5695 5695 5694 5693 5693 5694 5696 5700 5703 5706 5709
5707 5708 5709 5709 5709 5709 5709 5709 5708 5707 5707 5706 5704 5703 5701 5699 5697 5696 5694 5692 5691 5690 5689 5688 5687 5687 5686 5686 5686 5685 5685 5685 5686 5688 5691 5694 5697 5701
5702 5703 5703 5704 5704 5704 5703 5703 5702 5702 5700 5699 5697 5695 5693 5691 5688 5686 5684 5683 5682 5680 5679 5678 5678 5678 5677 5677 5677 5677 5678 5678 5679 5681 5684 5686 5690 5693
5698 5699 5699 5699 5699 5699 5699 5698 5697 5696 5694 5692 5690 5688 5685 5682 5679 5677 5675 5673 5671 5670 5669 5669 5668 5668 5669 5669 5669 5670 5670 5671 5672 5675 5677 5680 5683 5686
5695 5695 5695 5695 5695 5695 5694 5693 5692 5690 5688 5686 5683 5680 5677 5673 5671 5668 5665 5663 5661 5660 5660 5659 5659 5659 5660 5660 5661 5662 5663 5664 5666 5668 5670 5673 5676 5679
5692 5692 5692 5692 5692 5692 5690 5689 5687 5685 5682 5679 5675 5672 5668 5665 5661 5658 5656 5654 5652 5651 5650 5650 5650 5650 5651 5652 5653 5654 5656 5657 5659 5662 5664 5666 5669 5672
5689 5689 5689 5689 5689 5687 5686 5684 5682 5679 5676 5672 5668 5663 5660 5656 5653 5650 5648 5646 5644 5643 5642 5641 5641 5641 5642 5643 5645 5646 5648 5650 5652 5655 5658 5661 5663 5666
5686 5686 5686 5685 5684 5683 5681 5679 5677 5673 5669 5665 5661 5656 5652 5649 5645 5643 5640 5638 5637 5635 5635 5633 5633 5633 5633 5635 5636 5638 5640 5642 5644 5647 5650 5653 5656 5659
5683 5683 5682 5682 5681 5680 5678 5675 5672 5669 5665 5660 5656 5651 5647 5643 5639 5636 5634 5632 5630 5629 5628 5627 5626 5625 5625 5626 5627 5629 5631 5633 5636 5638 5641 5644 5647 5650
5679 5679 5679 5679 5678 5676 5674 5672 5669 5665 5661 5657 5652 5647 5643 5638 5635 5631 5629 5626 5624 5623 5621 5620 5619 5618 5618 5619 5619 5620 5621 5624 5626 5629 5632 5635 5638 5641
5675 5676 5676 5675 5674 5672 5670 5668 5665 5662 5658 5654 5649 5644 5639 5635 5631 5627 5624 5621 5619 5617 5615 5614 5612 5611 5610 5610 5610 5611 5612 5614 5616 5619 5621 5624 5627 5630
5671 5671 5671 5671 5670 5669 5667 5665 5662 5659 5656 5651 5647 5642 5637 5632 5627 5623 5620 5617 5614 5611 5609 5608 5606 5604 5603 5602 5602 5602 5603 5604 5606 5608 5610 5612 5615 5618
5666 5667 5667 5667 5666 5665 5664 5662 5660 5657 5653 5649 5644 5639 5634 5629 5624 5620 5615 5612 5608 5605 5603 5601 5599 5597 5595 5594 5593 5593 5594 5594 5595 5596 5598 5601 5603 5606
5661 5662 5663 5663 5662 5662 5661 5659 5657 5654 5651 5647 5642 5637 5632 5626 5621 5616 5611 5607 5603 5599 5596 5594 5592 5590 5588 5587 5585 5585 5584 5584 5584 5585 5586 5588 5590 5593
5657 5657 5658 5658 5658 5658 5657 5655 5654 5651 5648 5644 5640 5635 5630 5624 5619 5613 5608 5603 5598 5594 5591 5587 5585 5582 5580 5579 5577 5576 5575 5574 5574 5574 5575 5576 5577 5579